sat.trackr.live / text

‹ back to catalog

STARLINK-36454

NORAD 67470 · 2026-008AB

PAYLOAD ACTIVE UNKNOWN

§ Identity

Operator
Country
US
Launch date
2026-01-14
Launch site
AFETR
Launch vehicle
Mass (kg)
RCS (m²)

Purposes: comms

External: N2YO · Heavens-Above · Gunter

§ Orbital elements

Epoch: 2026-09-19T03:55:48.117504Z

Period
94.27 min
Inclination
42.9999°
Eccentricity
0.0001425
Mean motion
15.27594638 rev/d
Perigee alt
482.0 km
Apogee alt
484.0 km
Semi-major
6,861.1 km
B*
7.1395e-4
RAAN
192.3881°
Arg perigee
267.1053°
Mean anomaly
92.9636°
Rev number
3,916

§ Raw data

STARLINK-364541 67470U 26008AB  26262.16375136  .00019445  00000+0  71395-3 0  99902 67470  42.9999 192.3881 0001425 267.1053  92.9636 15.27594638 39160

JSON: /api/v1/satellites/67470 · /tle

For live sub-satellite position, see the globe view (requires WebGL).

§ Visibility from observer

Set your observer location to see the next 7 days of passes ≥ 10°. The values pass through the URL so the page stays shareable.

No JS? Fill the form by hand. The geolocation button needs JavaScript.